OK4ZAW-16 Weather Reports


time (UTC)temp
C
wind
direction
speed
KPH
gust
KPH
rain 1hr
cm
rain 24hr
cm
rain mn
cm
humidity
%
barometer
mb
20260507085816 6 0 4.8 8.0 0.00 0.00 0.00 10 1012.9
20260507085120 6 0 6.4 9.7 0.00 0.00 0.00 10 1012.8
20260507084424 6 0 4.8 9.7 0.00 0.00 0.00 10 1012.7
20260507083728 7 0 4.8 9.7 0.00 0.00 0.00 10 1012.6
20260507083032 7 0 6.4 8.0 0.00 0.00 0.00 10 1012.5
20260507082336 7 0 6.4 9.7 0.00 0.00 0.00 10 1012.5
20260507080944 6 0 6.4 9.7 0.00 0.00 0.00 10 1012.4
20260507080248 6 0 6.4 11.3 0.00 0.00 0.00 10 1012.4
20260507075552 6 0 6.4 11.3 0.00 0.00 0.00 10 1012.3
20260507074856 6 0 6.4 11.3 0.00 0.00 0.00 10 1012.2
20260507074201 6 0 6.4 9.7 0.00 0.00 0.00 10 1012.0
20260507073505 6 0 6.4 12.9 0.00 0.00 0.00 10 1012.0
20260507072113 6 0 6.4 8.0 0.00 0.00 0.00 10 1011.9
20260507071417 6 0 6.4 9.7 0.00 0.00 0.00 10 1011.9
20260507070721 6 0 6.4 11.3 0.00 0.00 0.00 10 1011.8
20260507070025 6 0 6.4 9.7 0.00 0.00 0.00 10 1011.8
20260507064633 6 0 6.4 9.7 0.00 0.00 0.00 10 1011.7
20260507063937 6 0 6.4 9.7 0.00 0.00 0.00 10 1011.7
20260507063241 6 0 6.4 9.7 0.00 0.00 0.00 10 1011.6
20260507062545 6 0 6.4 11.3 0.00 0.00 0.00 10 1011.5
20260507061850 6 0 6.4 9.7 0.00 0.00 0.00 10 1011.4
20260507060458 6 0 6.4 8.0 0.00 0.00 0.00 10 1011.2
20260507055802 6 0 4.8 8.0 0.00 0.00 0.00 10 1011.2
20260507055106 6 0 6.4 8.0 0.00 0.00 0.00 10 1011.2
20260507054410 6 0 4.8 8.0 0.00 0.00 0.00 10 1011.0
20260507053714 6 0 4.8 8.0 0.00 0.00 0.00 10 1011.0
20260507053018 7 0 4.8 8.0 0.00 0.00 0.00 10 1010.8
20260507051626 6 0 3.2 6.4 0.00 0.00 0.00 10 1010.7
20260507050930 6 0 3.2 6.4 0.00 0.00 0.00 10 1010.7
20260507050235 6 0 4.8 6.4 0.00 0.00 0.00 10 1010.7
20260507045539 6 0 3.2 6.4 0.00 0.00 0.00 10 1010.6
20260507044843 6 0 4.8 6.4 0.00 0.00 0.00 10 1010.6
20260507044147 6 0 4.8 6.4 0.00 0.00 0.00 10 1010.5
20260507043451 6 0 4.8 6.4 0.00 0.00 0.00 10 1010.4
20260507042755 6 0 4.8 6.4 0.00 0.00 0.00 10 1010.3
20260507042059 6 0 4.8 6.4 0.00 0.00 0.00 10 1010.2
20260507041404 6 0 3.2 6.4 0.00 0.00 0.00 10 1010.2
20260507040708 6 0 3.2 4.8 0.00 0.00 0.00 10 1010.2
20260507040012 6 0 3.2 6.4 0.00 0.00 0.00 10 1010.1
20260507035316 6 0 4.8 6.4 0.00 0.00 0.00 10 1010.2
20260507034620 6 0 4.8 6.4 0.00 0.00 0.00 10 1010.0
20260507033924 6 0 4.8 6.4 0.00 0.00 0.00 10 1010.0
20260507033228 6 0 4.8 6.4 0.00 0.00 0.00 10 1010.0
20260507032533 6 0 4.8 8.0 0.00 0.00 0.00 10 1010.0
20260507031837 6 0 4.8 6.4 0.00 0.00 0.00 10 1009.9
20260507031141 6 0 6.4 8.0 0.00 0.00 0.00 10 1009.7
20260507030445 6 0 4.8 8.0 0.00 0.00 0.00 10 1009.8
20260507025749 6 0 6.4 9.7 0.00 0.00 0.00 10 1009.7
20260507025053 6 0 6.4 11.3 0.00 0.00 0.00 10 1009.6
20260507024357 6 0 4.8 8.0 0.00 0.00 0.00 10 1009.7
20260507023702 6 0 4.8 6.4 0.00 0.00 0.00 10 1009.6
20260507023006 6 0 4.8 8.0 0.00 0.00 0.00 10 1009.6
20260507022310 6 0 4.8 8.0 0.00 0.00 0.00 10 1009.7
20260507020918 6 0 3.2 8.0 0.00 0.00 0.00 10 1009.6
20260507020222 6 0 1.6 4.8 0.00 0.00 0.00 10 1009.6
20260507015526 6 0 1.6 3.2 0.00 0.00 0.00 10 1009.6
20260507014830 6 0 0.0 1.6 0.00 0.00 0.00 10 1009.8
20260507014135 6 0 0.0 1.6 0.00 0.00 0.00 10 1009.9
20260507013439 6 0 0.0 1.6 0.00 0.00 0.00 10 1009.8
20260507012743 6 0 1.6 1.6 0.00 0.00 0.00 10 1009.7
20260507012047 6 0 1.6 3.2 0.00 0.00 0.00 10 1009.5
20260507011351 6 0 1.6 3.2 0.00 0.00 0.00 10 1009.5
20260507010655 6 0 1.6 3.2 0.00 0.00 0.00 10 1009.3
20260507005959 6 0 1.6 1.6 0.00 0.00 0.00 10 1009.1
20260507005305 6 0 0.0 1.6 0.00 0.00 0.00 10 1009.2
20260507004608 6 0 1.6 4.8 0.00 0.00 0.00 10 1009.3
20260507003912 6 0 1.6 3.2 0.00 0.00 0.00 10 1009.0
20260507003216 6 0 1.6 4.8 0.00 0.00 0.00 10 1008.8
20260507002520 6 0 1.6 4.8 0.00 0.00 0.00 10 1008.7
20260507001824 6 0 1.6 3.2 0.00 0.00 0.00 10 1008.9
20260507001128 6 0 1.6 3.2 0.00 0.00 0.00 10 1008.9
20260507000434 6 0 1.6 3.2 0.00 0.00 0.00 10 1009.0
20260506235040 6 0 1.6 3.2 0.00 0.00 0.00 10 1009.1
20260506234344 6 0 3.2 6.4 0.00 0.00 0.00 10 1009.3